📊 Raw Sensor Data

Showing records 40276 to 40300 of 84,960 total

ID Distance (ft) Battery V Battery A Int Temp (°F) Int Humid (%) Ext Temp (°F) Solar V RSSI SNR Time Stamp
44697 15.6 3.97 0 110 44 104 5.10 -71 9 06/27/2025 03:30 PM
44696 15.7 4.06 0 110 43 101 5.20 -71 7 06/27/2025 03:15 PM
44695 15.6 3.95 0 109 43 102 5.10 -71 8 06/27/2025 03:00 PM
44694 15.6 4.07 0 107 43 101 5.20 -71 8 06/27/2025 02:45 PM
44693 15.6 3.95 0 107 42 101 5.10 -70 8 06/27/2025 02:30 PM
44692 15.6 3.95 0 105 42 98 5.20 -70 8 06/27/2025 02:15 PM
44691 15.6 3.95 0 104 42 98 5.20 -70 8 06/27/2025 02:00 PM
44690 15.6 3.95 0 102 42 95 5.10 -70 8 06/27/2025 01:45 PM
44689 15.6 3.95 0 100 43 92 5.20 -69 8 06/27/2025 01:30 PM
44688 15.6 3.95 0 98 43 91 5.10 -71 8 06/27/2025 01:15 PM
44687 15.7 3.95 0 97 43 91 5.10 -69 8 06/27/2025 01:00 PM
44686 15.7 3.95 0 96 43 93 5.20 -71 8 06/27/2025 12:45 PM
44685 15.6 4.10 0 94 43 89 5.10 -70 8 06/27/2025 12:30 PM
44684 15.7 3.94 0 92 44 92 5.10 -72 8 06/27/2025 12:15 PM
44683 15.7 3.94 0 91 44 92 5.10 -70 7 06/27/2025 12:00 PM
44682 15.7 3.94 0 90 44 92 5.10 -70 7 06/27/2025 11:45 AM
44681 15.7 3.94 0 87 43 92 5.10 -70 8 06/27/2025 11:15 AM
44680 15.7 3.94 0 86 43 86 5.10 -69 8 06/27/2025 11:00 AM
44679 15.7 3.94 0 85 43 89 5.10 -70 8 06/27/2025 10:45 AM
44678 15.7 3.94 0 84 43 86 5.10 -69 8 06/27/2025 10:30 AM
44677 15.7 3.94 0 82 43 81 5.10 -69 8 06/27/2025 10:15 AM
44676 15.8 3.97 0 81 43 86 5.10 -69 8 06/27/2025 10:00 AM
44675 15.8 4.01 0 80 43 85 5.10 -69 7 06/27/2025 09:45 AM
44674 15.8 3.94 0 77 44 84 5.10 -69 8 06/27/2025 09:30 AM
44673 15.8 4.00 0 76 44 78 5.10 -70 8 06/27/2025 09:15 AM